DW2770 Cefalu IT current weather conditions

sailwx.info

Wind from 068

Air temperature 12.2° C
Dewpoint 10.1° C

Last reported at 2017-Feb-27 01:50 UTC.
Time now 2017-Feb-27 02:11 UTC

Location: N 38°02' E 014°02'.
View on Google Maps.

See reports from other nearby stations

  
Tides and Currents Weather Stations Pressure Air Temp Water Temp Dewpoint Dewpoint Depression Visibility Wind Speed Wind Dir Waves Ship Positions
date/time (UTC)wind fromknots sea level pressurealtimeterstation pressurevisibilityair tempwater tempwave heightnotes
2017-Feb-27 01:50 068 12.2
2017-Feb-27 01:30 090 11.7
2017-Feb-27 01:20 068 0 gusting 0 11.7
2017-Feb-27 01:10 153 11.7
2017-Feb-27 01:00 065 11.7
2017-Feb-27 00:40 064 11.7
2017-Feb-27 00:30 006 11.7
2017-Feb-27 00:20 112 11.7
2017-Feb-26 23:50 022 11.7
2017-Feb-26 23:30 068 1 gusting 1 11.7
2017-Feb-26 23:20 068 1 gusting 1 11.7
2017-Feb-26 23:00 084 12.2
2017-Feb-26 22:50 045 1 gusting 1 12.2
2017-Feb-26 22:40 068 1 gusting 1 12.2
2017-Feb-26 22:20 068 12.8
2017-Feb-26 22:10 045 12.2
2017-Feb-26 22:00 111 0 gusting 0 12.2
2017-Feb-26 21:50 159 0 gusting 0 12.2
2017-Feb-26 21:40 158 0 gusting 0 12.2
2017-Feb-26 21:30 022 12.2
2017-Feb-26 21:20 022 12.2
2017-Feb-26 21:10 068 12.8
2017-Feb-26 21:00 068 12.8
2017-Feb-26 20:50 112 12.8
2017-Feb-26 20:30 141 0 gusting 0 12.2
2017-Feb-26 20:10 090 12.2
2017-Feb-26 19:50 180 12.2
2017-Feb-26 19:40 248 0 gusting 1 12.2
2017-Feb-26 19:30 225 12.2
2017-Feb-26 19:20 045 12.2
2017-Feb-26 19:00 084 12.2
2017-Feb-26 18:50 180 12.2
2017-Feb-26 18:40 225 12.2
2017-Feb-26 18:30 158 0 gusting 0 12.2
2017-Feb-26 18:20 068 12.2
2017-Feb-26 18:10 135 0 gusting 0 12.2
2017-Feb-26 17:50 158 0 gusting 1 12.2
2017-Feb-26 17:30 090 12.2
2017-Feb-26 17:20 068 12.2
2017-Feb-26 17:10 068 12.2
2017-Feb-26 17:00 068 12.2
2017-Feb-26 16:50 068 12.2
2017-Feb-26 16:20 068 0 gusting 1 12.2
2017-Feb-26 16:10 068 0 gusting 1 12.2
2017-Feb-26 16:00 068 0 gusting 1 12.2
2017-Feb-26 15:50 068 1 gusting 2 12.8
2017-Feb-26 15:40 090 12.8
2017-Feb-26 15:00 081 1 gusting 1 13.9
2017-Feb-26 14:50 068 0 gusting 0 13.9
2017-Feb-26 14:30 056 0 gusting 1 13.9
2017-Feb-26 14:20 068 1 gusting 1 13.9
2017-Feb-26 14:10 022 1 gusting 1 13.9
2017-Feb-26 14:00 068 1 gusting 2 13.9
2017-Feb-26 13:40 068 0 gusting 2 13.9
2017-Feb-26 13:30 057 1 gusting 4 13.9
2017-Feb-26 13:20 090 2 gusting 4 13.9
2017-Feb-26 13:10 045 2 gusting 6 13.9
2017-Feb-26 13:00 101 4 gusting 5 13.9
2017-Feb-26 12:30 078 1 gusting 1 13.9
2017-Feb-26 12:20 068 0 gusting 1 13.9
2017-Feb-26 12:10 068 1 gusting 2 13.3
2017-Feb-26 11:50 068 2 gusting 2 13.9
2017-Feb-26 11:40 045 0 gusting 4 13.3
2017-Feb-26 11:30 080 13.3
2017-Feb-26 11:20 068 0 gusting 2 13.3
2017-Feb-26 11:10 068 13.9
2017-Feb-26 11:00 068 13.9
2017-Feb-26 10:40 068 1 gusting 4 13.3
2017-Feb-26 10:30 045 2 gusting 4 13.9
2017-Feb-26 10:10 045 1 gusting 2 13.9
2017-Feb-26 10:00 065 1 gusting 1 13.9
2017-Feb-26 09:30 068 2 gusting 4 13.9
2017-Feb-26 09:20 068 2 gusting 2 13.9
2017-Feb-26 09:10 045 1 gusting 2 13.3
2017-Feb-26 09:00 127 13.9
2017-Feb-26 08:50 135 13.3
2017-Feb-26 08:40 315 13.3
2017-Feb-26 08:30 029 13.3
2017-Feb-26 08:20 338 1 gusting 1 13.3
2017-Feb-26 08:10 292 0 gusting 6 13.3
2017-Feb-26 08:00 240 2 gusting 6 13.3
2017-Feb-26 07:50 292 0 gusting 1 13.3
2017-Feb-26 07:10 068 12.8
2017-Feb-26 07:00 055 12.8
2017-Feb-26 06:00 068 11.7
2017-Feb-26 05:50 112 11.1
2017-Feb-26 05:40 180 11.1
2017-Feb-26 05:30 148 0 gusting 0 11.1
2017-Feb-26 05:20 158 11.1
2017-Feb-26 05:10 158 0 gusting 0 11.7
2017-Feb-26 05:00 153 11.7
2017-Feb-26 04:50 090 11.7
2017-Feb-26 04:40 068 0 gusting 0 11.7
2017-Feb-26 04:30 142 11.7
2017-Feb-26 04:20 090 11.7
2017-Feb-26 04:10 158 11.7
2017-Feb-26 04:00 171 11.7
2017-Feb-26 03:50 180 1 gusting 2 11.7
2017-Feb-26 03:40 112 0 gusting 1 11.7
2017-Feb-26 03:30 180 1 gusting 1 11.7
2017-Feb-26 03:10 158 0 gusting 4 11.7
2017-Feb-26 02:30 180 1 gusting 1 11.7
2017-Feb-26 02:20 135 0 gusting 2 11.7
2017-Feb-26 02:10 202 0 gusting 2 11.7
2017-Feb-26 01:40 180 2 gusting 5 11.1
2017-Feb-26 01:10 180 2 gusting 4 11.7
2017-Feb-26 01:00 158 1 gusting 4 11.7
2017-Feb-26 00:50 180 4 gusting 4 11.7
2017-Feb-26 00:40 158 2 gusting 5 11.1
2017-Feb-26 00:30 174 1 gusting 4 11.1
2017-Feb-26 00:20 180 2 gusting 2 11.7
2017-Feb-26 00:00 186 11.7
2017-Feb-25 23:50 180 0 gusting 1 11.7
2017-Feb-25 23:40 180 0 gusting 2 11.7
2017-Feb-25 23:30 190 2 gusting 2 11.7
2017-Feb-25 23:20 202 0 gusting 1 11.7
2017-Feb-25 23:10 202 0 gusting 1 12.2
2017-Feb-25 23:00 196 1 gusting 2 12.2
2017-Feb-25 22:30 191 0 gusting 2 12.2
2017-Feb-25 22:20 158 0 gusting 2 12.2
2017-Feb-25 22:00 194 0 gusting 2 12.2
2017-Feb-25 21:50 180 12.2
2017-Feb-25 21:40 180 12.2
2017-Feb-25 21:30 180 0 gusting 2 12.2
2017-Feb-25 21:20 180 0 gusting 2 12.2
2017-Feb-25 20:40 180 4 gusting 5 12.2
2017-Feb-25 20:20 158 12.2
2017-Feb-25 20:10 180 1 gusting 1 12.8
2017-Feb-25 20:00 158 12.2
2017-Feb-25 19:50 180 0 gusting 0 12.2
2017-Feb-25 19:40 180 12.2
2017-Feb-25 19:22 202 5 gusting 5 12.2
2017-Feb-25 18:50 202 4 gusting 6 12.2
2017-Feb-25 18:40 225 5 gusting 6 12.2
2017-Feb-25 18:30 225 4 gusting 6 12.2
2017-Feb-25 18:20 180 6 gusting 6 12.2
2017-Feb-25 18:10 202 2 gusting 2 12.8
2017-Feb-25 17:50 180 1 gusting 5 12.8
2017-Feb-25 17:20 202 7 gusting 7 12.8
2017-Feb-25 17:11 202 3 gusting 6 12.8
2017-Feb-25 17:00 202 6 gusting 7 12.8
2017-Feb-25 16:40 202 5 gusting 7 12.8
2017-Feb-25 16:20 237 5 gusting 7 12.8
2017-Feb-25 16:00 190 6 gusting 8 13.3
2017-Feb-25 15:50 225 6 gusting 8 13.9
2017-Feb-25 15:40 292 4 gusting 5 13.9
2017-Feb-25 15:30 282 2 gusting 5 14.4
2017-Feb-25 15:20 315 2 gusting 2 14.4
2017-Feb-25 15:00 289 2 gusting 6 14.4
2017-Feb-25 14:50 225 4 gusting 7 14.4
2017-Feb-25 14:40 248 2 gusting 6 14.4
2017-Feb-25 14:30 190 4 gusting 6 15.0
2017-Feb-25 14:20 202 5 gusting 8 14.4
2017-Feb-25 14:10 225 4 gusting 7 14.4
2017-Feb-25 13:50 15.0
2017-Feb-25 13:30 250 2 gusting 5 14.4
2017-Feb-25 13:20 270 6 gusting 10 14.4
2017-Feb-25 13:11 248 10 gusting 12 14.4
2017-Feb-25 12:50 225 2 gusting 10 15.0
2017-Feb-25 12:40 315 7 gusting 11 15.0
2017-Feb-25 12:30 235 2 gusting 11 15.6
2017-Feb-25 12:20 292 4 gusting 10 15.6
2017-Feb-25 12:10 248 7 gusting 10 16.1
2017-Feb-25 12:00 256 5 gusting 11 16.7
2017-Feb-25 11:51 292 11 gusting 11 16.7
2017-Feb-25 11:40 270 2 gusting 12 16.7
2017-Feb-25 11:30 251 6 gusting 12 17.2
2017-Feb-25 11:20 225 4 gusting 5 16.7
2017-Feb-25 11:10 225 3 gusting 4 16.1
2017-Feb-25 10:50 226 0 gusting 5 16.1
2017-Feb-25 10:40 202 0 gusting 5 16.1
2017-Feb-25 10:30 106 0 gusting 5 15.6
2017-Feb-25 10:20 068 5 gusting 6 15.6
2017-Feb-25 10:10 068 3 gusting 5 16.1
2017-Feb-25 10:00 068 3 gusting 6 16.1
2017-Feb-25 09:50 304 5 gusting 6 16.7
2017-Feb-25 09:40 045 1 gusting 1 16.7
2017-Feb-25 09:20 070 2 gusting 2 16.7
2017-Feb-25 09:10 090 0 gusting 1 16.7
2017-Feb-25 09:00 068 1 gusting 2 16.1
2017-Feb-25 08:50 045 2 gusting 2 15.6
2017-Feb-25 08:40 068 2 gusting 5 15.6
2017-Feb-25 08:30 068 4 gusting 6 15.6
2017-Feb-25 08:20 068 6 gusting 6 15.6
2017-Feb-25 08:10 068 2 gusting 2 15.6
2017-Feb-25 08:00 068 2 gusting 6 15.6
2017-Feb-25 07:50 067 6 gusting 8 15.6
2017-Feb-25 07:30 063 7 gusting 7 15.0
2017-Feb-25 07:20 090 2 gusting 5 15.0
2017-Feb-25 07:10 068 4 gusting 6 15.6
2017-Feb-25 07:00 112 6 gusting 6 15.6
2017-Feb-25 06:40 068 3 gusting 4 15.6
2017-Feb-25 06:30 072 2 gusting 5 15.6
2017-Feb-25 06:20 204 5 gusting 5 22.8
2017-Feb-25 06:10 204 5 gusting 5 22.8
2017-Feb-25 06:00 204 5 gusting 5 22.8
2017-Feb-25 05:50 204 5 gusting 5 22.8
2017-Feb-25 05:40 204 5 gusting 5 22.8
2017-Feb-25 05:30 204 5 gusting 5 22.8
2017-Feb-25 05:20 204 5 gusting 5 22.8
2017-Feb-25 05:10 204 5 gusting 5 22.8
2017-Feb-25 05:00 204 5 gusting 5 22.8
2017-Feb-25 04:50 204 5 gusting 5 22.8
2017-Feb-25 04:30 202 5 gusting 5 22.8
2017-Feb-25 04:20 202 5 gusting 5 22.8
2017-Feb-25 04:10 024 1 gusting 1 22.8
2017-Feb-25 04:00 024 1 gusting 1 22.8
2017-Feb-25 03:50 024 1 gusting 1 22.8
2017-Feb-25 03:40 024 1 gusting 1 22.8
2017-Feb-25 03:20 024 1 gusting 1 22.8
2017-Feb-25 03:10 024 1 gusting 1 22.8
2017-Feb-25 02:50 062 1 gusting 1 22.2
2017-Feb-25 02:40 181 1 gusting 1 21.7
2017-Feb-25 02:20 181 1 gusting 1 21.7
2017-Feb-25 02:10 181 1 gusting 1 21.7
2017-Feb-25 02:00 181 1 gusting 1 21.7